Home   Weather   Cagliari   Past weeks

Flag for Italy Past Weather in Cagliari, Italy — Yesterday and Last 2 Weeks

Now
59 °F

Passing clouds.


Feels Like: 57 °F
Forecast: 43 / 68 °F
Wind: 10 mph from Northwest

Location: Cagliari / Elmas

Current Time: Feb 22, 2017 at 6:49:27 pm

Latest Report: Feb 22, 2017 at 5:50 pm


Visibility: N/A

Pressure: 30.12 "Hg

Humidity: 68%

Dew Point: 48 °F

Location of CagliariLocation

Past Weather in Cagliari — Graph

°F

Cagliari Temperature Yesterday

Maximum temperature yesterday: 61 °F (at 12:20 pm)
Minimum temperature yesterday: 37 °F (at 7:20 am)
Average temperature yesterday: 50 °F

High & Low Weather Summary for the Past Weeks

 TemperatureHumidityPressure
High64 °F (Feb 22, 1:50 pm)100% (Feb 8, 5:20 am)30.54 "Hg (Feb 8, 5:20 am)
Low34 °F (Feb 9, 10:50 am)39% (Feb 20, 12:50 pm)29.71 "Hg (Feb 9, 2:50 pm)
Average53 °F81%30.16 "Hg
* Reported Feb 7 5:20 pm — Feb 22 5:20 pm, Cagliari, Weather by CustomWeather, © 2017

Note: Actual official high and low records may vary slightly from our data, if they occured in-between our weather recording intervals... More about our weather records

Advertising

Cagliari Weather History for the Previous 24 Hours

Scroll right to see more
 ConditionsComfort  
Time TempWeatherWind HumidityBarometerVisibility
5:20 pm
Wed, Feb 22
61 °FPassing clouds.10 mph63%30.12 "HgN/A
4:50 pm61 °FScattered clouds.13 mph63%30.12 "HgN/A
4:20 pm63 °FScattered clouds.13 mph59%30.12 "HgN/A
3:50 pm64 °FScattered clouds.14 mph60%30.12 "HgN/A
3:20 pm64 °FScattered clouds.13 mph64%30.12 "HgN/A
2:50 pm64 °FScattered clouds.13 mph60%30.12 "HgN/A
2:20 pm64 °FScattered clouds.12 mph64%30.12 "HgN/A
1:50 pm64 °FScattered clouds.10 mph60%30.15 "HgN/A
1:20 pm63 °FScattered clouds.10 mph68%30.15 "HgN/A
12:50 pm63 °FScattered clouds.10 mph64%30.15 "HgN/A
12:20 pm63 °FScattered clouds.9 mph64%30.18 "HgN/A
11:50 am63 °FScattered clouds.8 mph68%30.18 "HgN/A
11:20 am61 °FPartly sunny.7 mph68%30.18 "HgN/A
10:50 am59 °FScattered clouds.8 mph72%30.18 "HgN/A
10:20 am59 °FScattered clouds.8 mph77%30.18 "HgN/A
9:50 am57 °FSunny.7 mph82%30.18 "Hg10 mi
9:20 am55 °FPassing clouds.3 mph82%30.18 "HgN/A
8:50 am54 °FPassing clouds.2 mph88%30.18 "HgN/A
8:20 am50 °FScattered clouds.2 mph94%30.18 "HgN/A
7:50 am50 °FPartly sunny.3 mph94%30.18 "HgN/A
7:20 am50 °FPartly sunny.3 mph94%30.15 "HgN/A
6:50 am52 °FPassing clouds.2 mph88%30.15 "HgN/A
6:20 am52 °FPassing clouds.3 mph88%30.15 "HgN/A
5:50 am52 °FPassing clouds.5 mph88%30.15 "HgN/A
5:20 am52 °FPassing clouds.3 mph88%30.15 "HgN/A
4:50 am52 °FPassing clouds.3 mph88%30.15 "HgN/A
4:20 am52 °FPassing clouds.3 mph82%30.15 "HgN/A
3:50 am52 °FPassing clouds.5 mph88%30.15 "HgN/A
3:20 am52 °FPassing clouds.5 mph88%30.18 "HgN/A
2:50 am52 °FPassing clouds.3 mph82%30.18 "HgN/A
2:20 am52 °FPassing clouds.5 mph82%30.18 "HgN/A
1:50 am52 °FPassing clouds.5 mph82%30.18 "HgN/A
1:20 am50 °FPassing clouds.5 mph88%30.18 "HgN/A
12:50 am50 °FPassing clouds.3 mph88%30.18 "HgN/A
12:20 am48 °FPassing clouds.3 mph94%30.18 "HgN/A
11:50 pm
Tue, Feb 21
46 °FPassing clouds.5 mph93%30.18 "HgN/A
11:20 pm46 °FClear.7 mph93%30.18 "Hg10 mi
10:50 pm46 °FClear.7 mph93%30.18 "Hg10 mi
10:20 pm50 °FClear.8 mph88%30.18 "Hg10 mi
9:50 pm52 °FClear.8 mph82%30.18 "Hg10 mi
9:20 pm50 °FClear.8 mph82%30.18 "Hg10 mi
8:50 pm50 °FClear.8 mph82%30.18 "Hg10 mi
8:20 pm50 °FClear.8 mph82%30.18 "Hg10 mi
7:50 pm52 °FClear.6 mph77%30.18 "Hg10 mi
7:20 pm52 °FClear.7 mph77%30.18 "Hg10 mi
6:50 pm55 °FPassing clouds.7 mph72%30.15 "HgN/A
6:20 pm57 °FPassing clouds.9 mph67%30.15 "HgN/A
Weather by CustomWeather, © 2017

See weather overviewHow to use our weather pages